Weather History for Newton, KS

Change the Weather History Date:

Saturday, August 17, 2013

  Actual Average Record
Temperature  
Mean Temperature 68 °F -  
Max Temperature 77 °F 87 °F 100 °F (2003)
Min Temperature 59 °F 64 °F 55 °F (2012)
Cooling Degree Days 3    
Growing Degree Days 18 (Base 50)    
Moisture  
Dew Point 58 °F    
Average Humidity 73    
Maximum Humidity 88    
Minimum Humidity 53    
Precipitation  
Precipitation 0.00 in - - ()
Sea Level Pressure  
Sea Level Pressure 30.17 in    
Wind  
Wind Speed 7 mph (ESE)    
Max Wind Speed 12 mph    
Max Gust Speed -    
Visibility 10 miles    
Events      
Averages and records for this station are not official NWS values.
T = Trace of Precipitation, MM = Missing Value Source: NWS Daily Summary

Daily Weather History Graph

Daily Weather History Graph

Search for Another Location

Airport:

Trip Planner

Search our weather history database for the weather conditions in past years. The results will help you decide how hot, cold, wet, or windy it might be!

Date:

Astronomy

Aug. 17, 2013 Rise Set
Actual Time 6:46 AM CDT 8:19 PM CDT
Civil Twilight 6:18 AM CDT 8:47 PM CDT
Nautical Twilight 5:44 AM CDT 9:20 PM CDT
Astronomical Twilight 5:09 AM CDT 9:56 PM CDT
Moon 5:34 PM CDT (8/17) 2:52 AM CDT (8/17)
Length of Visible Light 14h 29m
Length of Day
13h 33m
Waxing Gibbous, 84% of the Moon is Illuminated
Aug 17
Waxing Gibbous
Aug 20
Full
Aug 28
Last Quarter
Sep 5
New
Sep 12
First Quarter

Hourly Weather History & Observations

Time (CDT) Temp. Dew Point Humidity Pressure Visibility Wind Dir Wind Speed Gust Speed Precip Events Conditions
12:15 AM 64.4 °F 59.0 °F 83% 30.18 in 10.0 mi ESE 5.8 mph - N/A   Clear
12:35 AM 64.4 °F 59.0 °F 83% 30.18 in 10.0 mi ESE 8.1 mph - N/A   Clear
12:55 AM 64.4 °F 59.0 °F 83% 30.18 in 10.0 mi ESE 5.8 mph - N/A   Clear
1:15 AM 62.6 °F 59.0 °F 88% 30.18 in 10.0 mi ESE 6.9 mph - N/A   Clear
1:35 AM 62.6 °F 59.0 °F 88% 30.18 in 10.0 mi ESE 6.9 mph - N/A   Clear
1:55 AM 62.6 °F 59.0 °F 88% 30.18 in 10.0 mi ESE 6.9 mph - N/A   Clear
2:15 AM 62.6 °F 59.0 °F 88% 30.18 in 10.0 mi ESE 8.1 mph - N/A   Clear
2:35 AM 62.6 °F 57.2 °F 82% 30.18 in 10.0 mi ESE 6.9 mph - N/A   Clear
2:55 AM 62.6 °F 57.2 °F 82% 30.18 in 10.0 mi ESE 6.9 mph - N/A   Clear
3:15 AM 62.6 °F 57.2 °F 82% 30.18 in 10.0 mi ESE 6.9 mph - N/A   Clear
3:35 AM 60.8 °F 57.2 °F 88% 30.18 in 10.0 mi ESE 6.9 mph - N/A   Clear
3:55 AM 60.8 °F 57.2 °F 88% 30.18 in 10.0 mi SE 6.9 mph - N/A   Clear
4:15 AM 60.8 °F 57.2 °F 88% 30.18 in 10.0 mi ESE 6.9 mph - N/A   Clear
4:35 AM 60.8 °F 57.2 °F 88% 30.18 in 10.0 mi ESE 5.8 mph - N/A   Clear
4:55 AM 60.8 °F 57.2 °F 88% 30.18 in 10.0 mi ESE 6.9 mph - N/A   Clear
5:15 AM 60.8 °F 57.2 °F 88% 30.18 in 10.0 mi ESE 5.8 mph - N/A   Clear
5:35 AM 60.8 °F 57.2 °F 88% 30.18 in 10.0 mi SE 4.6 mph - N/A   Clear
5:55 AM 60.8 °F 57.2 °F 88% 30.18 in 10.0 mi ESE 4.6 mph - N/A   Clear
6:15 AM 60.8 °F 57.2 °F 88% 30.18 in 10.0 mi ESE 5.8 mph - N/A   Clear
6:35 AM 59.0 °F 55.4 °F 88% 30.19 in 10.0 mi ESE 5.8 mph - N/A   Clear
6:55 AM 59.0 °F 55.4 °F 88% 30.19 in 10.0 mi ESE 4.6 mph - N/A   Clear
7:15 AM 60.8 °F 57.2 °F 88% 30.20 in 10.0 mi SE 4.6 mph - N/A   Clear
7:35 AM 60.8 °F 57.2 °F 88% 30.20 in 10.0 mi SE 5.8 mph - N/A   Clear
7:55 AM 60.8 °F 57.2 °F 88% 30.19 in 10.0 mi SE 6.9 mph - N/A   Clear
8:15 AM 62.6 °F 57.2 °F 82% 30.19 in 10.0 mi SE 6.9 mph - N/A   Clear
8:35 AM 64.4 °F 59.0 °F 83% 30.20 in 10.0 mi SE 8.1 mph - N/A   Clear
8:55 AM 64.4 °F 59.0 °F 83% 30.20 in 10.0 mi SE 8.1 mph - N/A   Clear
9:15 AM 66.2 °F 59.0 °F 78% 30.20 in 10.0 mi SE 8.1 mph - N/A   Clear
9:35 AM 68.0 °F 59.0 °F 73% 30.21 in 10.0 mi SSE 6.9 mph - N/A   Clear
9:55 AM 69.8 °F 59.0 °F 68% 30.20 in 10.0 mi SE 6.9 mph - N/A   Clear
10:15 AM 69.8 °F 59.0 °F 68% 30.21 in 10.0 mi SSE 5.8 mph - N/A   Clear
10:35 AM 71.6 °F 59.0 °F 64% 30.21 in 10.0 mi SE 9.2 mph - N/A   Clear
10:55 AM 71.6 °F 59.0 °F 64% 30.21 in 10.0 mi SE 5.8 mph - N/A   Clear
11:15 AM 71.6 °F 59.0 °F 64% 30.21 in 10.0 mi South 8.1 mph - N/A   Clear
11:35 AM 73.4 °F 60.8 °F 65% 30.21 in 10.0 mi ESE 4.6 mph - N/A   Clear
11:55 AM 73.4 °F 60.8 °F 65% 30.20 in 10.0 mi SE 5.8 mph - N/A   Clear
12:15 PM 73.4 °F 60.8 °F 65% 30.20 in 10.0 mi ESE 6.9 mph - N/A   Partly Cloudy
12:35 PM 73.4 °F 60.8 °F 65% 30.19 in 10.0 mi ESE 3.5 mph - N/A   Clear
12:55 PM 73.4 °F 60.8 °F 65% 30.18 in 10.0 mi East 5.8 mph - N/A   Scattered Clouds
1:15 PM 75.2 °F 60.8 °F 61% 30.18 in 10.0 mi SSE 5.8 mph - N/A   Partly Cloudy
1:35 PM 75.2 °F 60.8 °F 61% 30.17 in 10.0 mi ESE 10.4 mph - N/A   Partly Cloudy
1:55 PM 75.2 °F 60.8 °F 61% 30.16 in 10.0 mi ESE 8.1 mph - N/A   Partly Cloudy
2:15 PM 75.2 °F 60.8 °F 61% 30.16 in 10.0 mi SE 8.1 mph - N/A   Clear
2:35 PM 75.2 °F 60.8 °F 61% 30.15 in 10.0 mi ESE 10.4 mph - N/A   Partly Cloudy
2:55 PM 75.2 °F 60.8 °F 61% 30.15 in 10.0 mi SE 10.4 mph - N/A   Partly Cloudy
3:15 PM 75.2 °F 59.0 °F 57% 30.15 in 10.0 mi ESE 6.9 mph - N/A   Clear
3:35 PM 75.2 °F 60.8 °F 61% 30.14 in 10.0 mi East 8.1 mph - N/A   Clear
3:55 PM 75.2 °F 60.8 °F 61% 30.13 in 10.0 mi East 9.2 mph - N/A   Partly Cloudy
4:15 PM 77.0 °F 60.8 °F 57% 30.13 in 10.0 mi East 9.2 mph - N/A   Partly Cloudy
4:35 PM 75.2 °F 59.0 °F 57% 30.14 in 10.0 mi ESE 10.4 mph - N/A   Partly Cloudy
4:55 PM 75.2 °F 59.0 °F 57% 30.13 in 10.0 mi East 6.9 mph - N/A   Partly Cloudy
5:15 PM 75.2 °F 57.2 °F 53% 30.13 in 10.0 mi ESE 6.9 mph - N/A   Clear
5:35 PM 75.2 °F 57.2 °F 53% 30.13 in 10.0 mi SE 11.5 mph - N/A   Clear
5:55 PM 75.2 °F 57.2 °F 53% 30.12 in 10.0 mi SE 9.2 mph - N/A   Clear
6:15 PM 75.2 °F 57.2 °F 53% 30.12 in 10.0 mi SE 9.2 mph - N/A   Partly Cloudy
6:35 PM 73.4 °F 57.2 °F 57% 30.12 in 10.0 mi SE 10.4 mph - N/A   Clear
6:55 PM 73.4 °F 57.2 °F 57% 30.11 in 10.0 mi ESE 9.2 mph - N/A   Clear
7:15 PM 73.4 °F 57.2 °F 57% 30.11 in 10.0 mi ESE 9.2 mph - N/A   Scattered Clouds
7:35 PM 71.6 °F 57.2 °F 60% 30.12 in 10.0 mi ESE 8.1 mph - N/A   Scattered Clouds
7:55 PM 71.6 °F 57.2 °F 60% 30.12 in 10.0 mi ESE 6.9 mph - N/A   Clear
8:15 PM 69.8 °F 57.2 °F 64% 30.12 in 10.0 mi ESE 5.8 mph - N/A   Clear
8:35 PM 68.0 °F 57.2 °F 68% 30.12 in 10.0 mi ESE 5.8 mph - N/A   Clear
8:55 PM 68.0 °F 57.2 °F 68% 30.12 in 10.0 mi ESE 6.9 mph - N/A   Clear
9:15 PM 68.0 °F 57.2 °F 68% 30.12 in 10.0 mi ESE 6.9 mph - N/A   Clear
9:35 PM 66.2 °F 57.2 °F 73% 30.14 in 10.0 mi ESE 5.8 mph - N/A   Clear
9:55 PM 66.2 °F 57.2 °F 73% 30.14 in 10.0 mi ESE 5.8 mph - N/A   Clear
10:15 PM 64.4 °F 57.2 °F 77% 30.15 in 10.0 mi ESE 5.8 mph - N/A   Clear
10:35 PM 64.4 °F 57.2 °F 77% 30.15 in 10.0 mi ESE 6.9 mph - N/A   Clear
10:55 PM 64.4 °F 57.2 °F 77% 30.15 in 10.0 mi ESE 6.9 mph - N/A   Clear
11:15 PM 62.6 °F 57.2 °F 82% 30.15 in 10.0 mi ESE 5.8 mph - N/A   Clear
11:35 PM 62.6 °F 57.2 °F 82% 30.17 in 10.0 mi SE 4.6 mph - N/A   Clear
11:55 PM 62.6 °F 57.2 °F 82% 30.16 in 10.0 mi ESE 5.8 mph - N/A   Clear